• en Belgique
  • Liste des pays
  • À 7 jours
  • Température de l'eau
  • Carte satellitaire
  • Carte météo
  • Widgets météo
  • user-avatar
    Se connecter

    Météo par heure à Mons

    Ce jour, 19 Février, Lundi

    Heure Température Précipitation Vent Pression Humidité
    00:00 -1°C° 0 mm 3 m/s 764 mmHg 77%
    01:00 -1°C° 0 mm 3 m/s 763 mmHg 77%
    02:00 -1°C° 0 mm 3 m/s 763 mmHg 77%
    03:00 -1°C° 0 mm 3 m/s 763 mmHg 76%
    04:00 0°C° 0 mm 3 m/s 763 mmHg 76%
    05:00 0°C° 0 mm 3 m/s 762 mmHg 76%
    06:00 0°C° 0 mm 3 m/s 762 mmHg 76%
    07:00 0°C° 0 mm 3 m/s 762 mmHg 73%
    08:00 +1°C° 0 mm 3 m/s 762 mmHg 70%
    09:00 +2°C° 0 mm 3 m/s 761 mmHg 67%
    10:00 +3°C° 0 mm 3 m/s 761 mmHg 66%
    11:00 +4°C° 0 mm 3 m/s 761 mmHg 64%
    12:00 +5°C° 0 mm 3 m/s 761 mmHg 62%
    13:00 +5°C° 0 mm 3 m/s 760 mmHg 64%
    14:00 +5°C° 0 mm 3 m/s 760 mmHg 66%
    15:00 +6°C° 0 mm 2 m/s 759 mmHg 68%
    16:00 +6°C° 0,2 mm 2 m/s 759 mmHg 72%
    17:00 +5°C° 0,2 mm 2 m/s 759 mmHg 77%
    18:00 +4°C° 0,2 mm 2 m/s 759 mmHg 81%
    19:00 +4°C° 0,2 mm 2 m/s 759 mmHg 82%
    20:00 +4°C° 0,2 mm 2 m/s 759 mmHg 83%
    21:00 +4°C° 0,2 mm 2 m/s 759 mmHg 85%
    22:00 +4°C° 0,1 mm 2 m/s 759 mmHg 85%
    23:00 +4°C° 0,1 mm 2 m/s 759 mmHg 85%

    Demain, 20 Février, Mardi

    Heure Température Précipitation Vent Pression Humidité
    00:00 +3°C° 0,1 mm 2 m/s 759 mmHg 85%
    01:00 +3°C° 0 mm 2 m/s 759 mmHg 85%
    02:00 +3°C° 0 mm 2 m/s 759 mmHg 85%
    03:00 +3°C° 0 mm 2 m/s 759 mmHg 85%
    04:00 +3°C° 0 mm 2 m/s 759 mmHg 85%
    05:00 +2°C° 0 mm 2 m/s 759 mmHg 84%
    06:00 +2°C° 0 mm 2 m/s 759 mmHg 83%
    07:00 +3°C° 0 mm 2 m/s 760 mmHg 80%
    08:00 +3°C° 0 mm 2 m/s 760 mmHg 76%
    09:00 +4°C° 0 mm 2 m/s 760 mmHg 73%
    10:00 +4°C° 0 mm 2 m/s 760 mmHg 68%
    11:00 +5°C° 0 mm 2 m/s 760 mmHg 62%
    12:00 +6°C° 0 mm 2 m/s 761 mmHg 57%
    13:00 +6°C° 0 mm 2 m/s 761 mmHg 57%
    14:00 +6°C° 0 mm 2 m/s 760 mmHg 58%
    15:00 +5°C° 0 mm 3 m/s 760 mmHg 58%
    16:00 +4°C° 0 mm 3 m/s 761 mmHg 62%
    17:00 +4°C° 0 mm 3 m/s 761 mmHg 66%
    18:00 +3°C° 0 mm 3 m/s 761 mmHg 70%
    19:00 +2°C° 0 mm 3 m/s 762 mmHg 71%
    20:00 +1°C° 0 mm 3 m/s 763 mmHg 73%
    21:00 0°C° 0 mm 3 m/s 763 mmHg 74%
    22:00 0°C° 0 mm 3 m/s 764 mmHg 75%
    23:00 0°C° 0 mm 3 m/s 764 mmHg 76%

    Après-demain, 21 Février, Mercredi

    Heure Température Précipitation Vent Pression Humidité
    00:00 -1°C° 0 mm 3 m/s 765 mmHg 77%
    01:00 -1°C° 0 mm 3 m/s 765 mmHg 78%
    02:00 -1°C° 0 mm 3 m/s 765 mmHg 79%
    03:00 -2°C° 0 mm 3 m/s 765 mmHg 80%
    04:00 -2°C° 0 mm 3 m/s 765 mmHg 81%
    05:00 -2°C° 0 mm 3 m/s 765 mmHg 81%
    06:00 -2°C° 0 mm 3 m/s 765 mmHg 82%
    07:00 -1°C° 0 mm 3 m/s 766 mmHg 77%
    08:00 -1°C° 0 mm 4 m/s 766 mmHg 72%
    09:00 0°C° 0 mm 4 m/s 766 mmHg 67%
    10:00 +1°C° 0 mm 4 m/s 766 mmHg 62%
    11:00 +3°C° 0 mm 4 m/s 766 mmHg 56%
    12:00 +4°C° 0 mm 4 m/s 765 mmHg 51%
    13:00 +4°C° 0 mm 4 m/s 765 mmHg 51%
    14:00 +5°C° 0 mm 5 m/s 764 mmHg 51%
    15:00 +5°C° 0 mm 5 m/s 764 mmHg 50%
    16:00 +3°C° 0 mm 4 m/s 764 mmHg 56%
    17:00 +1°C° 0 mm 4 m/s 764 mmHg 62%
    18:00 0°C° 0 mm 3 m/s 764 mmHg 67%
    19:00 0°C° 0 mm 3 m/s 764 mmHg 69%
    20:00 0°C° 0 mm 3 m/s 764 mmHg 70%
    21:00 -1°C° 0 mm 3 m/s 764 mmHg 72%
    22:00 -1°C° 0 mm 3 m/s 764 mmHg 72%
    23:00 -1°C° 0 mm 3 m/s 764 mmHg 73%

    22 Février, Jeudi

    Heure Température Précipitation Vent Pression Humidité
    00:00 -2°C° 0 mm 3 m/s 764 mmHg 74%
    01:00 -3°C° 0 mm 4 m/s 763 mmHg 74%
    02:00 -3°C° 0 mm 4 m/s 763 mmHg 74%
    03:00 -3°C° 0 mm 4 m/s 763 mmHg 74%
    04:00 -3°C° 0 mm 4 m/s 763 mmHg 74%
    05:00 -3°C° 0 mm 4 m/s 763 mmHg 74%
    06:00 -4°C° 0 mm 5 m/s 763 mmHg 74%
    07:00 -2°C° 0 mm 5 m/s 763 mmHg 70%
    08:00 -3°C° 0 mm 6 m/s 763 mmHg 65%
    09:00 -2°C° 0 mm 6 m/s 763 mmHg 60%
    10:00 0°C° 0 mm 7 m/s 763 mmHg 56%
    11:00 +2°C° 0 mm 7 m/s 763 mmHg 51%
    12:00 +3°C° 0 mm 7 m/s 762 mmHg 47%
    13:00 +3°C° 0 mm 7 m/s 762 mmHg 45%
    14:00 +3°C° 0 mm 7 m/s 762 mmHg 43%
    15:00 +3°C° 0 mm 7 m/s 761 mmHg 42%
    16:00 +2°C° 0 mm 7 m/s 762 mmHg 46%
    17:00 -1°C° 0 mm 6 m/s 762 mmHg 50%
    18:00 -1°C° 0 mm 5 m/s 762 mmHg 54%
    19:00 -2°C° 0 mm 6 m/s 762 mmHg 56%
    20:00 -3°C° 0 mm 6 m/s 763 mmHg 59%
    21:00 -3°C° 0 mm 6 m/s 763 mmHg 61%
    22:00 -3°C° 0 mm 6 m/s 763 mmHg 63%
    23:00 -4°C° 0 mm 6 m/s 763 mmHg 65%

    23 Février, Vendredi

    Heure Température Précipitation Vent Pression Humidité
    00:00 -4°C° 0 mm 6 m/s 763 mmHg 67%
    01:00 -4°C° 0 mm 6 m/s 762 mmHg 69%
    02:00 -4°C° 0 mm 6 m/s 762 mmHg 70%
    03:00 -4°C° 0 mm 6 m/s 762 mmHg 72%
    04:00 -5°C° 0 mm 6 m/s 762 mmHg 72%
    05:00 -5°C° 0 mm 6 m/s 762 mmHg 72%
    06:00 -5°C° 0 mm 6 m/s 762 mmHg 72%
    07:00 -4°C° 0 mm 6 m/s 762 mmHg 67%
    08:00 -4°C° 0 mm 7 m/s 762 mmHg 61%
    09:00 -3°C° 0 mm 7 m/s 763 mmHg 55%
    10:00 -2°C° 0 mm 7 m/s 763 mmHg 50%
    11:00 -1°C° 0 mm 7 m/s 762 mmHg 44%
    12:00 0°C° 0 mm 7 m/s 762 mmHg 39%
    13:00 +2°C° 0 mm 7 m/s 762 mmHg 38%
    14:00 +2°C° 0 mm 7 m/s 762 mmHg 38%
    15:00 +2°C° 0 mm 7 m/s 762 mmHg 38%
    16:00 0°C° 0 mm 7 m/s 762 mmHg 41%
    17:00 -1°C° 0 mm 6 m/s 762 mmHg 44%
    18:00 -1°C° 0 mm 5 m/s 763 mmHg 46%
    19:00 -2°C° 0 mm 5 m/s 763 mmHg 48%
    20:00 -2°C° 0 mm 5 m/s 763 mmHg 49%
    21:00 -4°C° 0 mm 5 m/s 764 mmHg 51%
    22:00 -4°C° 0 mm 5 m/s 764 mmHg 52%
    23:00 -4°C° 0 mm 5 m/s 764 mmHg 52%

    24 Février, Samedi

    Heure Température Précipitation Vent Pression Humidité
    00:00 -5°C° 0 mm 5 m/s 764 mmHg 53%
    01:00 -5°C° 0 mm 5 m/s 765 mmHg 51%
    02:00 -5°C° 0 mm 5 m/s 765 mmHg 49%
    03:00 -5°C° 0 mm 5 m/s 765 mmHg 47%
    04:00 -5°C° 0 mm 6 m/s 765 mmHg 44%
    05:00 -5°C° 0 mm 6 m/s 765 mmHg 42%
    06:00 -5°C° 0 mm 6 m/s 765 mmHg 40%
    07:00 -4°C° 0 mm 6 m/s 766 mmHg 35%
    08:00 -4°C° 0 mm 7 m/s 766 mmHg 31%
    09:00 -3°C° 0 mm 7 m/s 766 mmHg 27%
    10:00 -1°C° 0 mm 7 m/s 766 mmHg 27%
    11:00 0°C° 0 mm 7 m/s 766 mmHg 26%
    12:00 +2°C° 0 mm 7 m/s 766 mmHg 26%
    13:00 +2°C° 0 mm 7 m/s 766 mmHg 28%
    14:00 +2°C° 0 mm 7 m/s 766 mmHg 30%
    15:00 +2°C° 0 mm 7 m/s 766 mmHg 31%
    16:00 0°C° 0 mm 7 m/s 766 mmHg 35%
    17:00 -1°C° 0 mm 6 m/s 766 mmHg 38%
    18:00 -2°C° 0 mm 6 m/s 767 mmHg 41%
    19:00 -3°C° 0 mm 6 m/s 767 mmHg 42%
    20:00 -3°C° 0 mm 6 m/s 767 mmHg 44%
    21:00 -4°C° 0 mm 6 m/s 768 mmHg 45%
    22:00 -4°C° 0 mm 6 m/s 768 mmHg 47%
    23:00 -5°C° 0 mm 6 m/s 768 mmHg 49%
    Voir plus